FID,codice,elemento,parametro,geom,tstamp,valore
Clima_umidita_168h_preview.Barco.2024-05-13 17:00:00+02,Barco,"Via Rino Maragno 46, Ferrara",RH,POINT (44.860988 11.607838),2024-05-13T17:00:00,43.8
Clima_umidita_168h_preview.Barco.2024-05-13 18:00:00+02,Barco,"Via Rino Maragno 46, Ferrara",RH,POINT (44.860988 11.607838),2024-05-13T18:00:00,50.2
Clima_umidita_168h_preview.Barco.2024-05-13 19:00:00+02,Barco,"Via Rino Maragno 46, Ferrara",RH,POINT (44.860988 11.607838),2024-05-13T19:00:00,58.2
Clima_umidita_168h_preview.Barco.2024-05-13 20:00:00+02,Barco,"Via Rino Maragno 46, Ferrara",RH,POINT (44.860988 11.607838),2024-05-13T20:00:00,68.8
Clima_umidita_168h_preview.Barco.2024-05-13 21:00:00+02,Barco,"Via Rino Maragno 46, Ferrara",RH,POINT (44.860988 11.607838),2024-05-13T21:00:00,79.2
Clima_umidita_168h_preview.Barco.2024-05-13 22:00:00+02,Barco,"Via Rino Maragno 46, Ferrara",RH,POINT (44.860988 11.607838),2024-05-13T22:00:00,87.5
Clima_umidita_168h_preview.Barco.2024-05-13 23:00:00+02,Barco,"Via Rino Maragno 46, Ferrara",RH,POINT (44.860988 11.607838),2024-05-13T23:00:00,76.2
Clima_umidita_168h_preview.Barco.2024-05-14 00:00:00+02,Barco,"Via Rino Maragno 46, Ferrara",RH,POINT (44.860988 11.607838),2024-05-14T00:00:00,79.7
Clima_umidita_168h_preview.Barco.2024-05-14 01:00:00+02,Barco,"Via Rino Maragno 46, Ferrara",RH,POINT (44.860988 11.607838),2024-05-14T01:00:00,83.5
Clima_umidita_168h_preview.Barco.2024-05-14 02:00:00+02,Barco,"Via Rino Maragno 46, Ferrara",RH,POINT (44.860988 11.607838),2024-05-14T02:00:00,87.6
Clima_umidita_168h_preview.Barco.2024-05-14 03:00:00+02,Barco,"Via Rino Maragno 46, Ferrara",RH,POINT (44.860988 11.607838),2024-05-14T03:00:00,94.4
Clima_umidita_168h_preview.Barco.2024-05-14 04:00:00+02,Barco,"Via Rino Maragno 46, Ferrara",RH,POINT (44.860988 11.607838),2024-05-14T04:00:00,97.9
Clima_umidita_168h_preview.Barco.2024-05-14 05:00:00+02,Barco,"Via Rino Maragno 46, Ferrara",RH,POINT (44.860988 11.607838),2024-05-14T05:00:00,97.3
Clima_umidita_168h_preview.Barco.2024-05-14 06:00:00+02,Barco,"Via Rino Maragno 46, Ferrara",RH,POINT (44.860988 11.607838),2024-05-14T06:00:00,96.2
Clima_umidita_168h_preview.Barco.2024-05-14 07:00:00+02,Barco,"Via Rino Maragno 46, Ferrara",RH,POINT (44.860988 11.607838),2024-05-14T07:00:00,94.2
Clima_umidita_168h_preview.Barco.2024-05-14 08:00:00+02,Barco,"Via Rino Maragno 46, Ferrara",RH,POINT (44.860988 11.607838),2024-05-14T08:00:00,82
Clima_umidita_168h_preview.Barco.2024-05-14 09:00:00+02,Barco,"Via Rino Maragno 46, Ferrara",RH,POINT (44.860988 11.607838),2024-05-14T09:00:00,67.3
Clima_umidita_168h_preview.Barco.2024-05-14 10:00:00+02,Barco,"Via Rino Maragno 46, Ferrara",RH,POINT (44.860988 11.607838),2024-05-14T10:00:00,58.5
Clima_umidita_168h_preview.Barco.2024-05-14 11:00:00+02,Barco,"Via Rino Maragno 46, Ferrara",RH,POINT (44.860988 11.607838),2024-05-14T11:00:00,49.8
Clima_umidita_168h_preview.Barco.2024-05-14 12:00:00+02,Barco,"Via Rino Maragno 46, Ferrara",RH,POINT (44.860988 11.607838),2024-05-14T12:00:00,43
Clima_umidita_168h_preview.Barco.2024-05-14 13:00:00+02,Barco,"Via Rino Maragno 46, Ferrara",RH,POINT (44.860988 11.607838),2024-05-14T13:00:00,47.7
Clima_umidita_168h_preview.Barco.2024-05-14 14:00:00+02,Barco,"Via Rino Maragno 46, Ferrara",RH,POINT (44.860988 11.607838),2024-05-14T14:00:00,47.8
Clima_umidita_168h_preview.Barco.2024-05-14 15:00:00+02,Barco,"Via Rino Maragno 46, Ferrara",RH,POINT (44.860988 11.607838),2024-05-14T15:00:00,46.2
Clima_umidita_168h_preview.Barco.2024-05-14 16:00:00+02,Barco,"Via Rino Maragno 46, Ferrara",RH,POINT (44.860988 11.607838),2024-05-14T16:00:00,49.8
Clima_umidita_168h_preview.Barco.2024-05-14 17:00:00+02,Barco,"Via Rino Maragno 46, Ferrara",RH,POINT (44.860988 11.607838),2024-05-14T17:00:00,59.6
Clima_umidita_168h_preview.Barco.2024-05-14 18:00:00+02,Barco,"Via Rino Maragno 46, Ferrara",RH,POINT (44.860988 11.607838),2024-05-14T18:00:00,68.8
Clima_umidita_168h_preview.Barco.2024-05-14 19:00:00+02,Barco,"Via Rino Maragno 46, Ferrara",RH,POINT (44.860988 11.607838),2024-05-14T19:00:00,76.1
Clima_umidita_168h_preview.Barco.2024-05-14 20:00:00+02,Barco,"Via Rino Maragno 46, Ferrara",RH,POINT (44.860988 11.607838),2024-05-14T20:00:00,85.3
Clima_umidita_168h_preview.Barco.2024-05-14 21:00:00+02,Barco,"Via Rino Maragno 46, Ferrara",RH,POINT (44.860988 11.607838),2024-05-14T21:00:00,95.3
Clima_umidita_168h_preview.Barco.2024-05-14 22:00:00+02,Barco,"Via Rino Maragno 46, Ferrara",RH,POINT (44.860988 11.607838),2024-05-14T22:00:00,99.7
Clima_umidita_168h_preview.Barco.2024-05-14 23:00:00+02,Barco,"Via Rino Maragno 46, Ferrara",RH,POINT (44.860988 11.607838),2024-05-14T23:00:00,100
Clima_umidita_168h_preview.Barco.2024-05-15 00:00:00+02,Barco,"Via Rino Maragno 46, Ferrara",RH,POINT (44.860988 11.607838),2024-05-15T00:00:00,100
Clima_umidita_168h_preview.Barco.2024-05-15 01:00:00+02,Barco,"Via Rino Maragno 46, Ferrara",RH,POINT (44.860988 11.607838),2024-05-15T01:00:00,100
Clima_umidita_168h_preview.Barco.2024-05-15 02:00:00+02,Barco,"Via Rino Maragno 46, Ferrara",RH,POINT (44.860988 11.607838),2024-05-15T02:00:00,100
Clima_umidita_168h_preview.Barco.2024-05-15 03:00:00+02,Barco,"Via Rino Maragno 46, Ferrara",RH,POINT (44.860988 11.607838),2024-05-15T03:00:00,100
Clima_umidita_168h_preview.Barco.2024-05-15 04:00:00+02,Barco,"Via Rino Maragno 46, Ferrara",RH,POINT (44.860988 11.607838),2024-05-15T04:00:00,100
Clima_umidita_168h_preview.Barco.2024-05-15 05:00:00+02,Barco,"Via Rino Maragno 46, Ferrara",RH,POINT (44.860988 11.607838),2024-05-15T05:00:00,100
Clima_umidita_168h_preview.Barco.2024-05-15 06:00:00+02,Barco,"Via Rino Maragno 46, Ferrara",RH,POINT (44.860988 11.607838),2024-05-15T06:00:00,100
Clima_umidita_168h_preview.Barco.2024-05-15 07:00:00+02,Barco,"Via Rino Maragno 46, Ferrara",RH,POINT (44.860988 11.607838),2024-05-15T07:00:00,100
Clima_umidita_168h_preview.Barco.2024-05-15 08:00:00+02,Barco,"Via Rino Maragno 46, Ferrara",RH,POINT (44.860988 11.607838),2024-05-15T08:00:00,100
Clima_umidita_168h_preview.Barco.2024-05-15 09:00:00+02,Barco,"Via Rino Maragno 46, Ferrara",RH,POINT (44.860988 11.607838),2024-05-15T09:00:00,100
Clima_umidita_168h_preview.Barco.2024-05-15 10:00:00+02,Barco,"Via Rino Maragno 46, Ferrara",RH,POINT (44.860988 11.607838),2024-05-15T10:00:00,100
Clima_umidita_168h_preview.Barco.2024-05-15 11:00:00+02,Barco,"Via Rino Maragno 46, Ferrara",RH,POINT (44.860988 11.607838),2024-05-15T11:00:00,100
Clima_umidita_168h_preview.Barco.2024-05-15 12:00:00+02,Barco,"Via Rino Maragno 46, Ferrara",RH,POINT (44.860988 11.607838),2024-05-15T12:00:00,100
Clima_umidita_168h_preview.Barco.2024-05-15 13:00:00+02,Barco,"Via Rino Maragno 46, Ferrara",RH,POINT (44.860988 11.607838),2024-05-15T13:00:00,100
Clima_umidita_168h_preview.Barco.2024-05-15 14:00:00+02,Barco,"Via Rino Maragno 46, Ferrara",RH,POINT (44.860988 11.607838),2024-05-15T14:00:00,100
Clima_umidita_168h_preview.Barco.2024-05-15 15:00:00+02,Barco,"Via Rino Maragno 46, Ferrara",RH,POINT (44.860988 11.607838),2024-05-15T15:00:00,100
Clima_umidita_168h_preview.Barco.2024-05-15 16:00:00+02,Barco,"Via Rino Maragno 46, Ferrara",RH,POINT (44.860988 11.607838),2024-05-15T16:00:00,100
Clima_umidita_168h_preview.Barco.2024-05-15 17:00:00+02,Barco,"Via Rino Maragno 46, Ferrara",RH,POINT (44.860988 11.607838),2024-05-15T17:00:00,100
Clima_umidita_168h_preview.Barco.2024-05-15 18:00:00+02,Barco,"Via Rino Maragno 46, Ferrara",RH,POINT (44.860988 11.607838),2024-05-15T18:00:00,100
Clima_umidita_168h_preview.Barco.2024-05-15 19:00:00+02,Barco,"Via Rino Maragno 46, Ferrara",RH,POINT (44.860988 11.607838),2024-05-15T19:00:00,100
Clima_umidita_168h_preview.Barco.2024-05-15 20:00:00+02,Barco,"Via Rino Maragno 46, Ferrara",RH,POINT (44.860988 11.607838),2024-05-15T20:00:00,100
Clima_umidita_168h_preview.Barco.2024-05-15 21:00:00+02,Barco,"Via Rino Maragno 46, Ferrara",RH,POINT (44.860988 11.607838),2024-05-15T21:00:00,100
Clima_umidita_168h_preview.Barco.2024-05-15 22:00:00+02,Barco,"Via Rino Maragno 46, Ferrara",RH,POINT (44.860988 11.607838),2024-05-15T22:00:00,100
Clima_umidita_168h_preview.Barco.2024-05-15 23:00:00+02,Barco,"Via Rino Maragno 46, Ferrara",RH,POINT (44.860988 11.607838),2024-05-15T23:00:00,100
Clima_umidita_168h_preview.Barco.2024-05-16 00:00:00+02,Barco,"Via Rino Maragno 46, Ferrara",RH,POINT (44.860988 11.607838),2024-05-16T00:00:00,100
Clima_umidita_168h_preview.Barco.2024-05-16 01:00:00+02,Barco,"Via Rino Maragno 46, Ferrara",RH,POINT (44.860988 11.607838),2024-05-16T01:00:00,100
Clima_umidita_168h_preview.Barco.2024-05-16 02:00:00+02,Barco,"Via Rino Maragno 46, Ferrara",RH,POINT (44.860988 11.607838),2024-05-16T02:00:00,100
Clima_umidita_168h_preview.Barco.2024-05-16 03:00:00+02,Barco,"Via Rino Maragno 46, Ferrara",RH,POINT (44.860988 11.607838),2024-05-16T03:00:00,100
Clima_umidita_168h_preview.Barco.2024-05-16 04:00:00+02,Barco,"Via Rino Maragno 46, Ferrara",RH,POINT (44.860988 11.607838),2024-05-16T04:00:00,100
Clima_umidita_168h_preview.Barco.2024-05-16 05:00:00+02,Barco,"Via Rino Maragno 46, Ferrara",RH,POINT (44.860988 11.607838),2024-05-16T05:00:00,100
Clima_umidita_168h_preview.Barco.2024-05-16 06:00:00+02,Barco,"Via Rino Maragno 46, Ferrara",RH,POINT (44.860988 11.607838),2024-05-16T06:00:00,100
Clima_umidita_168h_preview.Barco.2024-05-16 07:00:00+02,Barco,"Via Rino Maragno 46, Ferrara",RH,POINT (44.860988 11.607838),2024-05-16T07:00:00,100
Clima_umidita_168h_preview.Barco.2024-05-16 08:00:00+02,Barco,"Via Rino Maragno 46, Ferrara",RH,POINT (44.860988 11.607838),2024-05-16T08:00:00,100
Clima_umidita_168h_preview.Barco.2024-05-16 09:00:00+02,Barco,"Via Rino Maragno 46, Ferrara",RH,POINT (44.860988 11.607838),2024-05-16T09:00:00,100
Clima_umidita_168h_preview.Barco.2024-05-16 10:00:00+02,Barco,"Via Rino Maragno 46, Ferrara",RH,POINT (44.860988 11.607838),2024-05-16T10:00:00,98.9
Clima_umidita_168h_preview.Barco.2024-05-16 11:00:00+02,Barco,"Via Rino Maragno 46, Ferrara",RH,POINT (44.860988 11.607838),2024-05-16T11:00:00,92.5
Clima_umidita_168h_preview.Barco.2024-05-16 12:00:00+02,Barco,"Via Rino Maragno 46, Ferrara",RH,POINT (44.860988 11.607838),2024-05-16T12:00:00,82
Clima_umidita_168h_preview.Barco.2024-05-16 13:00:00+02,Barco,"Via Rino Maragno 46, Ferrara",RH,POINT (44.860988 11.607838),2024-05-16T13:00:00,88.5
Clima_umidita_168h_preview.Barco.2024-05-16 14:00:00+02,Barco,"Via Rino Maragno 46, Ferrara",RH,POINT (44.860988 11.607838),2024-05-16T14:00:00,67
Clima_umidita_168h_preview.Barco.2024-05-16 15:00:00+02,Barco,"Via Rino Maragno 46, Ferrara",RH,POINT (44.860988 11.607838),2024-05-16T15:00:00,67.9
Clima_umidita_168h_preview.Barco.2024-05-16 16:00:00+02,Barco,"Via Rino Maragno 46, Ferrara",RH,POINT (44.860988 11.607838),2024-05-16T16:00:00,78.8
Clima_umidita_168h_preview.Barco.2024-05-16 17:00:00+02,Barco,"Via Rino Maragno 46, Ferrara",RH,POINT (44.860988 11.607838),2024-05-16T17:00:00,98.7
Clima_umidita_168h_preview.Barco.2024-05-16 18:00:00+02,Barco,"Via Rino Maragno 46, Ferrara",RH,POINT (44.860988 11.607838),2024-05-16T18:00:00,100
Clima_umidita_168h_preview.Barco.2024-05-16 19:00:00+02,Barco,"Via Rino Maragno 46, Ferrara",RH,POINT (44.860988 11.607838),2024-05-16T19:00:00,100
Clima_umidita_168h_preview.Barco.2024-05-16 20:00:00+02,Barco,"Via Rino Maragno 46, Ferrara",RH,POINT (44.860988 11.607838),2024-05-16T20:00:00,100
Clima_umidita_168h_preview.Barco.2024-05-16 21:00:00+02,Barco,"Via Rino Maragno 46, Ferrara",RH,POINT (44.860988 11.607838),2024-05-16T21:00:00,100
Clima_umidita_168h_preview.Barco.2024-05-16 22:00:00+02,Barco,"Via Rino Maragno 46, Ferrara",RH,POINT (44.860988 11.607838),2024-05-16T22:00:00,100
Clima_umidita_168h_preview.Barco.2024-05-16 23:00:00+02,Barco,"Via Rino Maragno 46, Ferrara",RH,POINT (44.860988 11.607838),2024-05-16T23:00:00,100
Clima_umidita_168h_preview.Barco.2024-05-17 00:00:00+02,Barco,"Via Rino Maragno 46, Ferrara",RH,POINT (44.860988 11.607838),2024-05-17T00:00:00,100
Clima_umidita_168h_preview.Barco.2024-05-17 01:00:00+02,Barco,"Via Rino Maragno 46, Ferrara",RH,POINT (44.860988 11.607838),2024-05-17T01:00:00,100
Clima_umidita_168h_preview.Barco.2024-05-17 02:00:00+02,Barco,"Via Rino Maragno 46, Ferrara",RH,POINT (44.860988 11.607838),2024-05-17T02:00:00,100
Clima_umidita_168h_preview.Barco.2024-05-17 03:00:00+02,Barco,"Via Rino Maragno 46, Ferrara",RH,POINT (44.860988 11.607838),2024-05-17T03:00:00,100
Clima_umidita_168h_preview.Barco.2024-05-17 04:00:00+02,Barco,"Via Rino Maragno 46, Ferrara",RH,POINT (44.860988 11.607838),2024-05-17T04:00:00,100
Clima_umidita_168h_preview.Barco.2024-05-17 05:00:00+02,Barco,"Via Rino Maragno 46, Ferrara",RH,POINT (44.860988 11.607838),2024-05-17T05:00:00,100
Clima_umidita_168h_preview.Barco.2024-05-17 06:00:00+02,Barco,"Via Rino Maragno 46, Ferrara",RH,POINT (44.860988 11.607838),2024-05-17T06:00:00,100
Clima_umidita_168h_preview.Barco.2024-05-17 07:00:00+02,Barco,"Via Rino Maragno 46, Ferrara",RH,POINT (44.860988 11.607838),2024-05-17T07:00:00,100
Clima_umidita_168h_preview.Barco.2024-05-17 08:00:00+02,Barco,"Via Rino Maragno 46, Ferrara",RH,POINT (44.860988 11.607838),2024-05-17T08:00:00,99.7
Clima_umidita_168h_preview.Barco.2024-05-17 09:00:00+02,Barco,"Via Rino Maragno 46, Ferrara",RH,POINT (44.860988 11.607838),2024-05-17T09:00:00,70.9
Clima_umidita_168h_preview.Barco.2024-05-17 10:00:00+02,Barco,"Via Rino Maragno 46, Ferrara",RH,POINT (44.860988 11.607838),2024-05-17T10:00:00,46.6
Clima_umidita_168h_preview.Barco.2024-05-17 11:00:00+02,Barco,"Via Rino Maragno 46, Ferrara",RH,POINT (44.860988 11.607838),2024-05-17T11:00:00,38.2
Clima_umidita_168h_preview.Barco.2024-05-17 12:00:00+02,Barco,"Via Rino Maragno 46, Ferrara",RH,POINT (44.860988 11.607838),2024-05-17T12:00:00,34.7
Clima_umidita_168h_preview.Barco.2024-05-17 13:00:00+02,Barco,"Via Rino Maragno 46, Ferrara",RH,POINT (44.860988 11.607838),2024-05-17T13:00:00,32.9
Clima_umidita_168h_preview.Barco.2024-05-17 14:00:00+02,Barco,"Via Rino Maragno 46, Ferrara",RH,POINT (44.860988 11.607838),2024-05-17T14:00:00,33.7
Clima_umidita_168h_preview.Barco.2024-05-17 15:00:00+02,Barco,"Via Rino Maragno 46, Ferrara",RH,POINT (44.860988 11.607838),2024-05-17T15:00:00,33.5
Clima_umidita_168h_preview.Barco.2024-05-17 16:00:00+02,Barco,"Via Rino Maragno 46, Ferrara",RH,POINT (44.860988 11.607838),2024-05-17T16:00:00,32.7
Clima_umidita_168h_preview.Barco.2024-05-17 17:00:00+02,Barco,"Via Rino Maragno 46, Ferrara",RH,POINT (44.860988 11.607838),2024-05-17T17:00:00,32.7
Clima_umidita_168h_preview.Barco.2024-05-17 18:00:00+02,Barco,"Via Rino Maragno 46, Ferrara",RH,POINT (44.860988 11.607838),2024-05-17T18:00:00,34.1
Clima_umidita_168h_preview.Barco.2024-05-17 19:00:00+02,Barco,"Via Rino Maragno 46, Ferrara",RH,POINT (44.860988 11.607838),2024-05-17T19:00:00,39.4
Clima_umidita_168h_preview.Barco.2024-05-17 20:00:00+02,Barco,"Via Rino Maragno 46, Ferrara",RH,POINT (44.860988 11.607838),2024-05-17T20:00:00,47
Clima_umidita_168h_preview.Barco.2024-05-17 21:00:00+02,Barco,"Via Rino Maragno 46, Ferrara",RH,POINT (44.860988 11.607838),2024-05-17T21:00:00,51
Clima_umidita_168h_preview.Barco.2024-05-17 22:00:00+02,Barco,"Via Rino Maragno 46, Ferrara",RH,POINT (44.860988 11.607838),2024-05-17T22:00:00,57.2
Clima_umidita_168h_preview.Barco.2024-05-17 23:00:00+02,Barco,"Via Rino Maragno 46, Ferrara",RH,POINT (44.860988 11.607838),2024-05-17T23:00:00,65.5
Clima_umidita_168h_preview.Barco.2024-05-18 00:00:00+02,Barco,"Via Rino Maragno 46, Ferrara",RH,POINT (44.860988 11.607838),2024-05-18T00:00:00,71.7
Clima_umidita_168h_preview.Barco.2024-05-18 01:00:00+02,Barco,"Via Rino Maragno 46, Ferrara",RH,POINT (44.860988 11.607838),2024-05-18T01:00:00,75.1
Clima_umidita_168h_preview.Barco.2024-05-18 02:00:00+02,Barco,"Via Rino Maragno 46, Ferrara",RH,POINT (44.860988 11.607838),2024-05-18T02:00:00,78.1
Clima_umidita_168h_preview.Barco.2024-05-18 03:00:00+02,Barco,"Via Rino Maragno 46, Ferrara",RH,POINT (44.860988 11.607838),2024-05-18T03:00:00,76.6
Clima_umidita_168h_preview.Barco.2024-05-18 04:00:00+02,Barco,"Via Rino Maragno 46, Ferrara",RH,POINT (44.860988 11.607838),2024-05-18T04:00:00,71.7
Clima_umidita_168h_preview.Barco.2024-05-18 05:00:00+02,Barco,"Via Rino Maragno 46, Ferrara",RH,POINT (44.860988 11.607838),2024-05-18T05:00:00,76.2
Clima_umidita_168h_preview.Barco.2024-05-18 06:00:00+02,Barco,"Via Rino Maragno 46, Ferrara",RH,POINT (44.860988 11.607838),2024-05-18T06:00:00,85
Clima_umidita_168h_preview.Barco.2024-05-18 07:00:00+02,Barco,"Via Rino Maragno 46, Ferrara",RH,POINT (44.860988 11.607838),2024-05-18T07:00:00,70.8
Clima_umidita_168h_preview.Barco.2024-05-18 08:00:00+02,Barco,"Via Rino Maragno 46, Ferrara",RH,POINT (44.860988 11.607838),2024-05-18T08:00:00,66.1
Clima_umidita_168h_preview.Barco.2024-05-18 09:00:00+02,Barco,"Via Rino Maragno 46, Ferrara",RH,POINT (44.860988 11.607838),2024-05-18T09:00:00,57.3
Clima_umidita_168h_preview.Barco.2024-05-18 10:00:00+02,Barco,"Via Rino Maragno 46, Ferrara",RH,POINT (44.860988 11.607838),2024-05-18T10:00:00,49
Clima_umidita_168h_preview.Barco.2024-05-18 11:00:00+02,Barco,"Via Rino Maragno 46, Ferrara",RH,POINT (44.860988 11.607838),2024-05-18T11:00:00,45.7
Clima_umidita_168h_preview.Barco.2024-05-18 12:00:00+02,Barco,"Via Rino Maragno 46, Ferrara",RH,POINT (44.860988 11.607838),2024-05-18T12:00:00,41.7
Clima_umidita_168h_preview.Barco.2024-05-18 13:00:00+02,Barco,"Via Rino Maragno 46, Ferrara",RH,POINT (44.860988 11.607838),2024-05-18T13:00:00,35.4
Clima_umidita_168h_preview.Barco.2024-05-18 14:00:00+02,Barco,"Via Rino Maragno 46, Ferrara",RH,POINT (44.860988 11.607838),2024-05-18T14:00:00,33
Clima_umidita_168h_preview.Barco.2024-05-18 15:00:00+02,Barco,"Via Rino Maragno 46, Ferrara",RH,POINT (44.860988 11.607838),2024-05-18T15:00:00,33.5
Clima_umidita_168h_preview.Barco.2024-05-18 16:00:00+02,Barco,"Via Rino Maragno 46, Ferrara",RH,POINT (44.860988 11.607838),2024-05-18T16:00:00,32.9
Clima_umidita_168h_preview.Barco.2024-05-18 17:00:00+02,Barco,"Via Rino Maragno 46, Ferrara",RH,POINT (44.860988 11.607838),2024-05-18T17:00:00,35.8
Clima_umidita_168h_preview.Barco.2024-05-18 18:00:00+02,Barco,"Via Rino Maragno 46, Ferrara",RH,POINT (44.860988 11.607838),2024-05-18T18:00:00,45.3
Clima_umidita_168h_preview.Barco.2024-05-18 19:00:00+02,Barco,"Via Rino Maragno 46, Ferrara",RH,POINT (44.860988 11.607838),2024-05-18T19:00:00,49.4
Clima_umidita_168h_preview.Barco.2024-05-18 20:00:00+02,Barco,"Via Rino Maragno 46, Ferrara",RH,POINT (44.860988 11.607838),2024-05-18T20:00:00,56.7
Clima_umidita_168h_preview.Barco.2024-05-18 21:00:00+02,Barco,"Via Rino Maragno 46, Ferrara",RH,POINT (44.860988 11.607838),2024-05-18T21:00:00,63.6
Clima_umidita_168h_preview.Barco.2024-05-18 22:00:00+02,Barco,"Via Rino Maragno 46, Ferrara",RH,POINT (44.860988 11.607838),2024-05-18T22:00:00,78.9
Clima_umidita_168h_preview.Barco.2024-05-18 23:00:00+02,Barco,"Via Rino Maragno 46, Ferrara",RH,POINT (44.860988 11.607838),2024-05-18T23:00:00,94.2
Clima_umidita_168h_preview.Barco.2024-05-19 00:00:00+02,Barco,"Via Rino Maragno 46, Ferrara",RH,POINT (44.860988 11.607838),2024-05-19T00:00:00,98.8
Clima_umidita_168h_preview.Barco.2024-05-19 01:00:00+02,Barco,"Via Rino Maragno 46, Ferrara",RH,POINT (44.860988 11.607838),2024-05-19T01:00:00,100
Clima_umidita_168h_preview.Barco.2024-05-19 02:00:00+02,Barco,"Via Rino Maragno 46, Ferrara",RH,POINT (44.860988 11.607838),2024-05-19T02:00:00,100
Clima_umidita_168h_preview.Barco.2024-05-19 03:00:00+02,Barco,"Via Rino Maragno 46, Ferrara",RH,POINT (44.860988 11.607838),2024-05-19T03:00:00,100
Clima_umidita_168h_preview.Barco.2024-05-19 04:00:00+02,Barco,"Via Rino Maragno 46, Ferrara",RH,POINT (44.860988 11.607838),2024-05-19T04:00:00,100
Clima_umidita_168h_preview.Barco.2024-05-19 05:00:00+02,Barco,"Via Rino Maragno 46, Ferrara",RH,POINT (44.860988 11.607838),2024-05-19T05:00:00,100
Clima_umidita_168h_preview.Barco.2024-05-19 06:00:00+02,Barco,"Via Rino Maragno 46, Ferrara",RH,POINT (44.860988 11.607838),2024-05-19T06:00:00,100
Clima_umidita_168h_preview.Barco.2024-05-19 07:00:00+02,Barco,"Via Rino Maragno 46, Ferrara",RH,POINT (44.860988 11.607838),2024-05-19T07:00:00,100
Clima_umidita_168h_preview.Barco.2024-05-19 08:00:00+02,Barco,"Via Rino Maragno 46, Ferrara",RH,POINT (44.860988 11.607838),2024-05-19T08:00:00,99.9
Clima_umidita_168h_preview.Barco.2024-05-19 09:00:00+02,Barco,"Via Rino Maragno 46, Ferrara",RH,POINT (44.860988 11.607838),2024-05-19T09:00:00,94.7
Clima_umidita_168h_preview.Barco.2024-05-19 10:00:00+02,Barco,"Via Rino Maragno 46, Ferrara",RH,POINT (44.860988 11.607838),2024-05-19T10:00:00,87.5
Clima_umidita_168h_preview.Barco.2024-05-19 11:00:00+02,Barco,"Via Rino Maragno 46, Ferrara",RH,POINT (44.860988 11.607838),2024-05-19T11:00:00,71.4
Clima_umidita_168h_preview.Barco.2024-05-19 12:00:00+02,Barco,"Via Rino Maragno 46, Ferrara",RH,POINT (44.860988 11.607838),2024-05-19T12:00:00,58.7
Clima_umidita_168h_preview.Barco.2024-05-19 13:00:00+02,Barco,"Via Rino Maragno 46, Ferrara",RH,POINT (44.860988 11.607838),2024-05-19T13:00:00,53.8
Clima_umidita_168h_preview.Barco.2024-05-19 14:00:00+02,Barco,"Via Rino Maragno 46, Ferrara",RH,POINT (44.860988 11.607838),2024-05-19T14:00:00,48.2
Clima_umidita_168h_preview.Barco.2024-05-19 15:00:00+02,Barco,"Via Rino Maragno 46, Ferrara",RH,POINT (44.860988 11.607838),2024-05-19T15:00:00,49.3
Clima_umidita_168h_preview.Barco.2024-05-19 16:00:00+02,Barco,"Via Rino Maragno 46, Ferrara",RH,POINT (44.860988 11.607838),2024-05-19T16:00:00,58.4
Clima_umidita_168h_preview.Barco.2024-05-19 17:00:00+02,Barco,"Via Rino Maragno 46, Ferrara",RH,POINT (44.860988 11.607838),2024-05-19T17:00:00,56.9
Clima_umidita_168h_preview.Barco.2024-05-19 18:00:00+02,Barco,"Via Rino Maragno 46, Ferrara",RH,POINT (44.860988 11.607838),2024-05-19T18:00:00,60.6
Clima_umidita_168h_preview.Barco.2024-05-19 19:00:00+02,Barco,"Via Rino Maragno 46, Ferrara",RH,POINT (44.860988 11.607838),2024-05-19T19:00:00,75.3
Clima_umidita_168h_preview.Barco.2024-05-19 20:00:00+02,Barco,"Via Rino Maragno 46, Ferrara",RH,POINT (44.860988 11.607838),2024-05-19T20:00:00,83.7
Clima_umidita_168h_preview.Barco.2024-05-19 21:00:00+02,Barco,"Via Rino Maragno 46, Ferrara",RH,POINT (44.860988 11.607838),2024-05-19T21:00:00,86.4
Clima_umidita_168h_preview.Barco.2024-05-19 22:00:00+02,Barco,"Via Rino Maragno 46, Ferrara",RH,POINT (44.860988 11.607838),2024-05-19T22:00:00,87.5
Clima_umidita_168h_preview.Barco.2024-05-19 23:00:00+02,Barco,"Via Rino Maragno 46, Ferrara",RH,POINT (44.860988 11.607838),2024-05-19T23:00:00,95.8
Clima_umidita_168h_preview.Barco.2024-05-20 00:00:00+02,Barco,"Via Rino Maragno 46, Ferrara",RH,POINT (44.860988 11.607838),2024-05-20T00:00:00,100
Clima_umidita_168h_preview.Barco.2024-05-20 01:00:00+02,Barco,"Via Rino Maragno 46, Ferrara",RH,POINT (44.860988 11.607838),2024-05-20T01:00:00,100
Clima_umidita_168h_preview.Barco.2024-05-20 02:00:00+02,Barco,"Via Rino Maragno 46, Ferrara",RH,POINT (44.860988 11.607838),2024-05-20T02:00:00,100
Clima_umidita_168h_preview.Barco.2024-05-20 03:00:00+02,Barco,"Via Rino Maragno 46, Ferrara",RH,POINT (44.860988 11.607838),2024-05-20T03:00:00,100
Clima_umidita_168h_preview.Barco.2024-05-20 04:00:00+02,Barco,"Via Rino Maragno 46, Ferrara",RH,POINT (44.860988 11.607838),2024-05-20T04:00:00,100
Clima_umidita_168h_preview.Barco.2024-05-20 05:00:00+02,Barco,"Via Rino Maragno 46, Ferrara",RH,POINT (44.860988 11.607838),2024-05-20T05:00:00,100
Clima_umidita_168h_preview.Barco.2024-05-20 06:00:00+02,Barco,"Via Rino Maragno 46, Ferrara",RH,POINT (44.860988 11.607838),2024-05-20T06:00:00,100
Clima_umidita_168h_preview.Barco.2024-05-20 07:00:00+02,Barco,"Via Rino Maragno 46, Ferrara",RH,POINT (44.860988 11.607838),2024-05-20T07:00:00,100
Clima_umidita_168h_preview.Barco.2024-05-20 08:00:00+02,Barco,"Via Rino Maragno 46, Ferrara",RH,POINT (44.860988 11.607838),2024-05-20T08:00:00,100